Content
SEND FEEDBACK

Daily
Averages
Monthly
Summary
United States of America

EAST FALMOUTH, MASSACHUSETTS


Home > North America > United States > Massachusetts
Elevation: 70 feet     Latitude: 41 37N     Longitude: 070 32W

WEATHER
 
SELECT A DAY
Number of Records: 269,687;   Date Range: 1/1/95 - 7/29/14
 
SHARE

PRINT THIS DATA

[ ← Previous Day ]
WEATHER ALMANAC - APRIL 3, 2013
[ Next Day → ]
[ °C ]   °F
Weather ElementAverageHighLow
Temperature36.6 °F44.6 °F (1:35 pm) (7:35 pm)
Dewpoint11.4 °F14 °F (2:35 am) (7:00 pm)
Humidity36.4 %48 % (2:35 am)23 % (1:35 pm)
Barometer30.01 in30.16 in (11:55 pm)29.95 in (3:15 pm)
Wind Speed17.9 mph26.5 mph (8:55 am)
Wind Gust34.5 mph (2:55 pm)
Weather ElementAverage
Visibility10 mi
Wind DirectionWNW (284.2 °)

Weather ElementTotal
Precipitation---
Heating Degree Days42.7 (Base 65)
Averaged from 71 records on April 3, 2013
WEATHER CONDITIONS BREAKOUT
WIND DIRECTION BREAKOUT
WEATHER BY HOUR - APRIL 3, 2013
[ °C ]   °F
Local TimeTemperatureDewpointHumidityBarometerVisibilityWind DirectionWind SpeedGust SpeedPrecipitationEventsConditions
12:35 AM32.0 °F12.2 °F44 %29.98 in10.0 miWNW (290°)12.7 mph17.3 mphClear
12:55 AM32.0 °F12.2 °F44 %29.98 in10.0 miWest (280°)12.7 mphClear
1:15 AM32.0 °F12.2 °F44 %29.98 in10.0 miWest (270°)15.0 mph21.9 mphClear
1:35 AM32.0 °F12.2 °F44 %29.97 in10.0 miWest (280°)19.6 mph27.6 mphClear
1:55 AM32.0 °F12.2 °F44 %29.97 in10.0 miWest (270°)19.6 mph28.8 mphClear
2:15 AM32.0 °F12.2 °F44 %29.98 in10.0 miWest (280°)23.0 mph28.8 mphClear
2:35 AM32.0 °F14.0 °F48 %29.97 in10.0 miWest (280°)17.3 mph27.6 mphClear
2:55 AM32.0 °F14.0 °F48 %29.97 in10.0 miWNW (290°)19.6 mph24.2 mphClear
3:15 AM32.0 °F14.0 °F48 %29.97 in10.0 miWNW (290°)17.3 mph27.6 mphClear
3:35 AM32.0 °F14.0 °F48 %29.97 in10.0 miWNW (290°)20.7 mph26.5 mphClear
3:55 AM32.0 °F14.0 °F48 %29.97 in10.0 miWNW (290°)20.7 mph27.6 mphScattered Clouds
4:15 AM32.0 °F14.0 °F48 %29.97 in10.0 miWest (270°)17.3 mph25.3 mphPartly Cloudy
4:35 AM32.0 °F14.0 °F48 %29.97 in10.0 miWest (270°)16.1 mphScattered Clouds
4:55 AM32.0 °F12.2 °F44 %29.97 in10.0 miWNW (290°)23.0 mph29.9 mphMostly Cloudy
5:15 AM32.0 °F14.0 °F48 %29.98 in10.0 miWNW (290°)13.8 mph21.9 mphPartly Cloudy
5:35 AM32.0 °F14.0 °F48 %29.98 in10.0 miWest (280°)13.8 mph19.6 mphClear
5:55 AM32.0 °F14.0 °F48 %29.99 in10.0 miWest (280°)11.5 mph23.0 mph
6:15 AM32.0 °F14.0 °F48 %30.00 in10.0 miWest (270°)20.7 mph29.9 mphClear
6:35 AM32.0 °F14.0 °F48 %30.00 in10.0 miWest (280°)23.0 mph29.9 mphClear
6:55 AM32.0 °F14.0 °F48 %30.01 in10.0 miWNW (290°)19.6 mph25.3 mphClear
7:15 AM32.0 °F14.0 °F48 %30.02 in10.0 miWest (280°)17.3 mph21.9 mphClear
7:35 AM32.0 °F14.0 °F48 %30.02 in10.0 miWNW (290°)19.6 mph23.0 mphClear
7:55 AM32.0 °F14.0 °F48 %30.02 in10.0 miWest (280°)19.6 mph28.8 mphClear
8:15 AM33.8 °F14.0 °F44 %30.02 in10.0 miWest (270°)19.6 mph26.5 mphClear
8:35 AM33.8 °F14.0 °F44 %30.02 in10.0 miWest (280°)20.7 mph29.9 mphPartly Cloudy
8:55 AM35.6 °F12.2 °F38 %30.02 in10.0 miWest (280°)26.5 mph31.1 mphClear
9:15 AM35.6 °F10.4 °F35 %30.01 in10.0 miWNW (290°)21.9 mph31.1 mphClear
9:35 AM35.6 °F10.4 °F35 %30.01 in10.0 miWest (280°)20.7 mph31.1 mphClear
9:55 AM37.4 °F12.2 °F36 %30.01 in10.0 miWest (280°)17.3 mph24.2 mphClear
10:15 AM37.4 °F10.4 °F33 %30.00 in10.0 miWNW (290°)21.9 mph32.2 mphClear
10:35 AM37.4 °F10.4 °F33 %30.00 in10.0 miWest (270°)17.3 mph25.3 mphClear
10:55 AM37.4 °F10.4 °F33 %29.99 in10.0 miWNW (300°)19.6 mph31.1 mphClear
11:15 AM39.2 °F10.4 °F31 %29.99 in10.0 miWest (270°)17.3 mph29.9 mphClear
11:35 AM39.2 °F10.4 °F31 %29.99 in10.0 miWest (280°)25.3 mph31.1 mphClear
11:55 AM39.2 °F8.6 °F28 %29.98 in10.0 miWNW (290°)21.9 mph29.9 mphClear
12:15 PM41.0 °F10.4 °F29 %29.98 in10.0 miWest (280°)15.0 mph26.5 mphClear
12:35 PM41.0 °F10.4 °F29 %29.98 in10.0 miWest (270°)20.7 mph26.5 mphClear
12:55 PM41.0 °F10.4 °F29 %29.97 in10.0 miWest (280°)19.6 mph32.2 mphClear
1:15 PM42.8 °F10.4 °F27 %29.97 in10.0 miWest (270°)19.6 mph29.9 mphClear
1:35 PM44.6 °F8.6 °F23 %29.97 in10.0 miWest (280°)21.9 mph28.8 mphClear
1:55 PM42.8 °F10.4 °F27 %29.97 in10.0 miWest (260°)18.4 mph28.8 mphClear
2:15 PM44.6 °F10.4 °F25 %29.97 in10.0 miWest (270°)19.6 mph28.8 mphClear
2:35 PM44.6 °F10.4 °F25 %29.97 in10.0 miWNW (290°)18.4 mph32.2 mphClear
2:55 PM44.6 °F10.4 °F25 %29.96 in10.0 miWest (280°)23.0 mph34.5 mphClear
3:15 PM44.6 °F10.4 °F25 %29.95 in10.0 miWest (270°)18.4 mph29.9 mphClear
3:35 PM44.6 °F10.4 °F25 %29.95 in10.0 miWest (280°)15.0 mph21.9 mphClear
3:55 PM44.6 °F8.6 °F23 %29.96 in10.0 miWNW (300°)18.4 mph28.8 mphClear
4:15 PM44.6 °F8.6 °F23 %29.96 in10.0 miWest (270°)15.0 mph24.2 mphClear
4:35 PM44.6 °F10.4 °F25 %29.96 in10.0 miWest (280°)17.3 mph25.3 mphClear
4:55 PM44.6 °F8.6 °F23 %29.96 in10.0 miNW (310°)18.4 mph26.5 mphClear
5:15 PM44.6 °F10.4 °F25 %29.96 in10.0 miWNW (290°)16.1 mph27.6 mphClear
5:35 PM44.6 °F8.6 °F23 %29.97 in10.0 miWest (280°)20.7 mph27.6 mphClear
5:55 PM42.8 °F8.6 °F25 %29.98 in10.0 miWest (270°)17.3 mph23.0 mphClear
6:15 PM42.8 °F8.6 °F25 %29.98 in10.0 miWNW (290°)15.0 mph25.3 mphClear
6:35 PM41.0 °F10.4 °F29 %30.00 in10.0 miWNW (290°)12.7 mphClear
6:55 PM41.0 °F8.6 °F26 %30.01 in10.0 miWNW (300°)15.0 mph23.0 mphClear
7:15 PM39.2 °F10.4 °F31 %30.02 in10.0 miWNW (300°)13.8 mphClear
7:35 PM0.0 °F0.0 °F30.03 inWest (280°)16.1 mph
7:55 PM39.2 °F10.4 °F31 %30.05 in10.0 miWNW (300°)17.3 mph21.9 mphClear
8:15 PM39.2 °F10.4 °F31 %30.06 in10.0 miWNW (290°)21.9 mph25.3 mphClear
8:35 PM37.4 °F10.4 °F33 %30.07 in10.0 miWNW (290°)18.4 mph28.8 mphClear
8:55 PM37.4 °F10.4 °F33 %30.09 in10.0 miWNW (290°)13.8 mph24.2 mphClear
9:15 PM37.4 °F10.4 °F33 %30.10 in10.0 miWNW (290°)13.8 mph20.7 mphClear
9:35 PM37.4 °F10.4 °F33 %30.11 in10.0 miWNW (290°)13.8 mph23.0 mphClear
9:55 PM35.6 °F12.2 °F38 %30.12 in10.0 miWNW (290°)12.7 mphClear
10:15 PM35.6 °F12.2 °F38 %30.12 in10.0 miWNW (300°)17.3 mph21.9 mphClear
10:35 PM35.6 °F12.2 °F38 %30.13 in10.0 miWNW (290°)12.7 mphClear
10:55 PM35.6 °F12.2 °F38 %30.14 in10.0 miWNW (290°)17.3 mphClear
11:15 PM33.8 °F12.2 °F41 %30.15 in10.0 miWNW (290°)16.1 mphClear
11:35 PM32.0 °F14.0 °F48 %30.15 in10.0 miNW (310°)11.5 mph18.4 mphClear
11:55 PM32.0 °F14.0 °F48 %30.16 in10.0 miNW (310°)15.0 mph21.9 mphClear
Hourly data recorded from KFMH, located miles away from East Falmouth, Massachusetts







STORIES FROM OUR PARTNERS